Regional Weather Roundup
Issued by NWS

Home | Current Version | Previous Version | Graphics & Text | Print | Product List | Glossary On
Versions: 1 2 3 4 5 6 7 8 9 10 11 12 13 14 15 16 17 18 19 20 21 22 23 24 25 26 27 28 29 30 31 32 33 34 35 36 37 38 39 40 41 42 43 44 45 46 47 48 49 50
000
ASUS43 KLMK 271510
RWRKY
KENTUCKY REGIONAL WEATHER ROUNDUP
NATIONAL WEATHER SERVICE LOUISVILLE KY
1100 AM EDT THU AUG 27 2015

NOTE "FAIR" INDICATES FEW OR NO CLOUDS BELOW 12,000 FEET
WITH NO SIGNIFICANT WEATHER AND/OR OBSTRUCTIONS TO VISIBILITY.

KYZ001>023-026-027-061>063-070>075-271600-
WESTERN AND SOUTH CENTRAL KENTUCKY

CITY           SKY/WX    TMP DP  RH WIND       PRES   REMARKS
PADUCAH        SUNNY     73  61  65 E7        30.15F
HENDERSON      SUNNY     70  61  73 CALM      30.16F
OWENSBORO      SUNNY     75  59  57 CALM      30.19R
HOPKINSVILLE   SUNNY     74  57  55 NE7       30.16R
BOWLING GREEN  SUNNY     74  58  57 E7        30.17R
GLASGOW        SUNNY     71  58  62 NE8       30.17R
$$

KYZ024-025-028>034-038-045-046-053-271600-
NORTH CENTRAL KENTUCKY

CITY           SKY/WX    TMP DP  RH WIND       PRES   REMARKS
LOUISVILLE/SDF SUNNY     74  55  51 CALM      30.18S
LOUISVILLE/LOU SUNNY     72  55  55 CALM      30.19S
FORT KNOX      SUNNY     71  57  61 E6        30.18R
$$

KYZ035>037-039>044-047>052-055>060-089>105-271600-
NORTHEAST KENTUCKY

CITY           SKY/WX    TMP DP  RH WIND       PRES   REMARKS
LEXINGTON      SUNNY     72  53  51 NE9       30.19S
COVINGTON      PTSUNNY   71  57  61 SE5       30.20S
FRANKFORT      SUNNY     71  54  54 MISG      30.19R
$$

KYZ054-064>069-076>088-106>120-271600-
SOUTHEAST KENTUCKY

CITY           SKY/WX    TMP DP  RH WIND       PRES   REMARKS
JACKSON        SUNNY     67  55  65 CALM      30.20R
LONDON         SUNNY     70  54  56 E9        30.18R
SOMERSET       SUNNY     70  54  56 E8        30.19R
MIDDLESBORO    SUNNY     66  59  78 CALM      30.17S
MONTICELLO     SUNNY     71  59  66 E10G16    30.20R
$$



USA.gov is the U.S. government's official web portal to all federal, state and local government web resources and services.